When you browse on this site, cookies collect data to enhance your experience and personalize the content and advertising you see.
Visit our Privacy Policy to learn more. By continuing to use the site, you agree to this use of cookies and data.
  • In Netherlands
  • List of Countries
  • For 7 days
  • Water Temperature
  • Satellite Maps
  • Weather Map
  • Weather Widgets
  • user-avatar
    Login

    Hourly Weather Koshino

    Today, 19 April, Friday

    Time Temperature Precipitation Wind Pressure Humidity
    00:00 +6°C° 0 mm 2 mps 754 mmHg 66%
    01:00 +5°C° 0 mm 2 mps 754 mmHg 67%
    02:00 +4°C° 0 mm 2 mps 754 mmHg 67%
    03:00 +4°C° 0 mm 2 mps 755 mmHg 68%
    04:00 +3°C° 0 mm 2 mps 755 mmHg 68%
    05:00 +3°C° 0 mm 2 mps 755 mmHg 68%
    06:00 +2°C° 0 mm 2 mps 755 mmHg 69%
    07:00 +3°C° 0 mm 3 mps 755 mmHg 63%
    08:00 +4°C° 0 mm 3 mps 755 mmHg 58%
    09:00 +7°C° 0 mm 3 mps 756 mmHg 53%
    10:00 +8°C° 0 mm 3 mps 756 mmHg 48%
    11:00 +9°C° 0 mm 3 mps 756 mmHg 42%
    12:00 +10°C° 0 mm 3 mps 756 mmHg 37%
    13:00 +10°C° 0 mm 2 mps 756 mmHg 37%
    14:00 +10°C° 0 mm 2 mps 755 mmHg 38%
    15:00 +10°C° 0 mm 2 mps 755 mmHg 38%
    16:00 +10°C° 0 mm 2 mps 755 mmHg 39%
    17:00 +10°C° 0 mm 2 mps 755 mmHg 40%
    18:00 +9°C° 0 mm 2 mps 755 mmHg 41%
    19:00 +10°C° 0 mm 1 mps 755 mmHg 43%
    20:00 +9°C° 0 mm 1 mps 755 mmHg 45%
    21:00 +8°C° 0 mm 0 mps 755 mmHg 47%
    22:00 +8°C° 0 mm 1 mps 755 mmHg 49%
    23:00 +8°C° 0 mm 1 mps 755 mmHg 50%

    Tomorrow, 20 April, Saturday

    Time Temperature Precipitation Wind Pressure Humidity
    00:00 +8°C° 0 mm 1 mps 755 mmHg 52%
    01:00 +7°C° 0 mm 1 mps 755 mmHg 54%
    02:00 +7°C° 0 mm 1 mps 754 mmHg 57%
    03:00 +6°C° 0 mm 1 mps 754 mmHg 60%
    04:00 +6°C° 0 mm 1 mps 754 mmHg 62%
    05:00 +5°C° 0 mm 1 mps 754 mmHg 64%
    06:00 +4°C° 0 mm 2 mps 753 mmHg 66%
    07:00 +5°C° 0 mm 2 mps 753 mmHg 61%
    08:00 +7°C° 0 mm 2 mps 753 mmHg 55%
    09:00 +8°C° 0 mm 3 mps 753 mmHg 49%
    10:00 +9°C° 0 mm 3 mps 753 mmHg 46%
    11:00 +10°C° 0 mm 3 mps 752 mmHg 43%
    12:00 +11°C° 0 mm 3 mps 752 mmHg 40%
    13:00 +12°C° 0 mm 3 mps 752 mmHg 40%
    14:00 +13°C° 0 mm 2 mps 752 mmHg 40%
    15:00 +13°C° 0 mm 2 mps 751 mmHg 40%
    16:00 +13°C° 0 mm 2 mps 751 mmHg 41%
    17:00 +13°C° 0 mm 2 mps 751 mmHg 43%
    18:00 +13°C° 0 mm 2 mps 751 mmHg 45%
    19:00 +12°C° 0 mm 2 mps 751 mmHg 49%
    20:00 +10°C° 0 mm 2 mps 751 mmHg 53%
    21:00 +9°C° 0 mm 2 mps 752 mmHg 56%
    22:00 +8°C° 0 mm 2 mps 752 mmHg 56%
    23:00 +8°C° 0 mm 3 mps 752 mmHg 56%

    Day after tomorrow, 21 April, Sunday

    Time Temperature Precipitation Wind Pressure Humidity
    00:00 +8°C° 0 mm 3 mps 752 mmHg 56%
    01:00 +8°C° 0 mm 3 mps 752 mmHg 57%
    02:00 +7°C° 0 mm 2 mps 753 mmHg 58%
    03:00 +7°C° 0 mm 2 mps 753 mmHg 58%
    04:00 +6°C° 0 mm 2 mps 753 mmHg 60%
    05:00 +6°C° 0 mm 2 mps 753 mmHg 61%
    06:00 +6°C° 0 mm 2 mps 753 mmHg 62%
    07:00 +7°C° 0 mm 2 mps 754 mmHg 58%
    08:00 +9°C° 0 mm 2 mps 754 mmHg 54%
    09:00 +10°C° 0 mm 2 mps 754 mmHg 49%
    10:00 +12°C° 0 mm 2 mps 754 mmHg 45%
    11:00 +13°C° 0 mm 2 mps 754 mmHg 40%
    12:00 +13°C° 0 mm 2 mps 754 mmHg 36%
    13:00 +14°C° 0 mm 1 mps 754 mmHg 35%
    14:00 +14°C° 0 mm 1 mps 754 mmHg 34%
    15:00 +14°C° 0 mm 1 mps 754 mmHg 34%
    16:00 +14°C° 0 mm 1 mps 754 mmHg 34%
    17:00 +14°C° 0 mm 1 mps 754 mmHg 35%
    18:00 +14°C° 0 mm 1 mps 754 mmHg 35%
    19:00 +13°C° 0 mm 1 mps 755 mmHg 38%
    20:00 +12°C° 0 mm 1 mps 755 mmHg 41%
    21:00 +11°C° 0 mm 1 mps 755 mmHg 45%
    22:00 +11°C° 0 mm 1 mps 755 mmHg 47%
    23:00 +10°C° 0 mm 1 mps 755 mmHg 49%

    22 April, Monday

    Time Temperature Precipitation Wind Pressure Humidity
    00:00 +10°C° 0 mm 1 mps 756 mmHg 51%
    01:00 +10°C° 0 mm 1 mps 756 mmHg 53%
    02:00 +9°C° 0 mm 1 mps 756 mmHg 55%
    03:00 +8°C° 0 mm 2 mps 756 mmHg 57%
    04:00 +8°C° 0 mm 2 mps 756 mmHg 59%
    05:00 +8°C° 0 mm 2 mps 756 mmHg 60%
    06:00 +8°C° 0 mm 2 mps 756 mmHg 62%
    07:00 +8°C° 0 mm 2 mps 757 mmHg 59%
    08:00 +9°C° 0 mm 2 mps 757 mmHg 57%
    09:00 +10°C° 0 mm 2 mps 757 mmHg 54%
    10:00 +12°C° 0 mm 2 mps 757 mmHg 50%
    11:00 +13°C° 0 mm 2 mps 757 mmHg 46%
    12:00 +14°C° 0 mm 2 mps 757 mmHg 42%
    13:00 +14°C° 0 mm 2 mps 756 mmHg 41%
    14:00 +14°C° 0 mm 2 mps 756 mmHg 41%
    15:00 +15°C° 0 mm 2 mps 756 mmHg 41%
    16:00 +15°C° 0 mm 2 mps 756 mmHg 43%
    17:00 +14°C° 0 mm 1 mps 756 mmHg 44%
    18:00 +14°C° 0 mm 1 mps 755 mmHg 46%
    19:00 +13°C° 0 mm 1 mps 756 mmHg 48%
    20:00 +12°C° 0 mm 2 mps 756 mmHg 51%
    21:00 +10°C° 0 mm 2 mps 756 mmHg 53%
    22:00 +10°C° 0 mm 2 mps 756 mmHg 54%
    23:00 +9°C° 0 mm 2 mps 756 mmHg 56%

    23 April, Tuesday

    Time Temperature Precipitation Wind Pressure Humidity
    00:00 +9°C° 0 mm 3 mps 756 mmHg 57%
    01:00 +9°C° 0 mm 3 mps 756 mmHg 61%
    02:00 +8°C° 0 mm 3 mps 757 mmHg 64%
    03:00 +8°C° 0 mm 3 mps 757 mmHg 68%
    04:00 +8°C° 0 mm 3 mps 757 mmHg 70%
    05:00 +8°C° 0 mm 3 mps 757 mmHg 73%
    06:00 +8°C° 0 mm 3 mps 757 mmHg 76%
    07:00 +10°C° 0 mm 3 mps 757 mmHg 71%
    08:00 +11°C° 0 mm 3 mps 757 mmHg 66%
    09:00 +13°C° 0 mm 3 mps 757 mmHg 62%
    10:00 +14°C° 0 mm 3 mps 757 mmHg 54%
    11:00 +16°C° 0 mm 3 mps 757 mmHg 47%
    12:00 +17°C° 0 mm 3 mps 757 mmHg 39%
    13:00 +18°C° 0 mm 4 mps 757 mmHg 38%
    14:00 +18°C° 0 mm 4 mps 756 mmHg 36%
    15:00 +18°C° 0 mm 4 mps 756 mmHg 35%
    16:00 +18°C° 0 mm 3 mps 756 mmHg 37%
    17:00 +18°C° 0 mm 3 mps 756 mmHg 40%
    18:00 +18°C° 0 mm 3 mps 756 mmHg 42%
    19:00 +16°C° 0 mm 2 mps 756 mmHg 47%
    20:00 +15°C° 0 mm 2 mps 756 mmHg 51%
    21:00 +13°C° 0 mm 2 mps 756 mmHg 56%
    22:00 +13°C° 0 mm 2 mps 756 mmHg 59%
    23:00 +12°C° 0 mm 2 mps 756 mmHg 61%

    24 April, Wednesday

    Time Temperature Precipitation Wind Pressure Humidity
    00:00 +10°C° 0 mm 2 mps 757 mmHg 64%
    01:00 +10°C° 0 mm 2 mps 757 mmHg 66%
    02:00 +10°C° 0 mm 2 mps 757 mmHg 68%
    03:00 +9°C° 0 mm 2 mps 757 mmHg 70%
    04:00 +9°C° 0 mm 2 mps 757 mmHg 71%
    05:00 +9°C° 0 mm 2 mps 757 mmHg 73%
    06:00 +8°C° 0 mm 2 mps 758 mmHg 74%
    07:00 +10°C° 0 mm 2 mps 758 mmHg 68%
    08:00 +13°C° 0 mm 2 mps 758 mmHg 62%
    09:00 +14°C° 0 mm 3 mps 758 mmHg 56%
    10:00 +16°C° 0 mm 3 mps 758 mmHg 51%
    11:00 +18°C° 0 mm 3 mps 757 mmHg 46%
    12:00 +19°C° 0 mm 3 mps 757 mmHg 41%
    13:00 +20°C° 0 mm 3 mps 757 mmHg 39%
    14:00 +20°C° 0 mm 3 mps 757 mmHg 38%
    15:00 +20°C° 0 mm 3 mps 757 mmHg 36%
    16:00 +20°C° 0 mm 3 mps 756 mmHg 38%
    17:00 +20°C° 0 mm 3 mps 756 mmHg 40%
    18:00 +19°C° 0 mm 2 mps 756 mmHg 42%
    19:00 +18°C° 0 mm 2 mps 756 mmHg 47%
    20:00 +16°C° 0 mm 2 mps 756 mmHg 51%
    21:00 +15°C° 0 mm 1 mps 756 mmHg 55%
    22:00 +14°C° 0 mm 1 mps 756 mmHg 57%
    23:00 +13°C° 0 mm 2 mps 756 mmHg 60%
    Show more